Kingman, AZ

7:02 PM MST on September 23, 2017 (GMT -0700)
Kingman

Weather History for KIGM - February, 2014

Change the Weather History Date:

Wednesday, February 5, 2014

  Actual Average Record
Temperature  
Mean Temperature 44 °F 46 °F  
Max Temperature 55 °F 59 °F 78 °F (1963)
Min Temperature 32 °F 33 °F 12 °F (1919)
Degree Days  
Heating Degree Days 21 19  
Month to date heating degree days 130 98  
Since 1 July heating degree days 2060 2003  
Cooling Degree Days 0 0  
Month to date cooling degree days 0 0  
Year to date cooling degree days 0 0  
Moisture  
Dew Point 22 °F    
Average Humidity 43    
Maximum Humidity 56    
Minimum Humidity 29    
Precipitation  
Precipitation 0.00 in 0.04 in 2.24 in (1931)
Month to date precipitation 0.00 0.21  
Year to date precipitation 0.01 1.23  
Sea Level Pressure  
Sea Level Pressure 29.96 in    
Wind  
Wind Speed 6 mph (South)    
Max Wind Speed 13 mph    
Max Gust Speed 19 mph    
Visibility 10 miles    
Events      
T = Trace of Precipitation, MM = Missing Value Source: NWS Daily Summary

Daily Weather History Graph

Daily Weather History Graph

Search for Another Location

Airport or City:

Trip Planner

Search our weather history database for the weather conditions in past years. The results will help you decide how hot, cold, wet, or windy it might be!

Date:

Astronomy

Feb. 05, 2014 Rise Set
Actual Time 7:31 AM MST 6:08 PM MST
Civil Twilight 7:05 AM MST 6:34 PM MST
Nautical Twilight 6:35 AM MST 7:04 PM MST
Astronomical Twilight 6:05 AM MST 7:34 PM MST
Moon 11:04 AM MST (2/5) No Moon Set
Length of Visible Light 11h 29m
Length of Day
10h 36m
Waxing Crescent, 40% of the Moon is Illuminated
Feb 5
Waxing Crescent
Feb 6
First Quarter
Feb 14
Full
Feb 22
Last Quarter
Mar 1
New

Hourly Weather History & Observations

Time (MST) Temp. Windchill Dew Point Humidity Pressure Visibility Wind Dir Wind Speed Gust Speed Precip Events Conditions
12:51 AM 36.0 °F 31.1 °F 19.9 °F 52% 29.97 in 10.0 mi ESE 5.8 mph - N/A   Clear
1:51 AM 35.1 °F 27.9 °F 19.9 °F 54% 29.97 in 10.0 mi SE 9.2 mph - N/A   Clear
2:51 AM 35.1 °F 27.4 °F 19.9 °F 54% 29.97 in 10.0 mi SE 10.4 mph - N/A   Clear
3:51 AM 33.1 °F 26.9 °F 19.0 °F 56% 29.97 in 10.0 mi SSE 6.9 mph - N/A   Clear
4:51 AM 36.0 °F 33.3 °F 21.0 °F 55% 29.96 in 10.0 mi Variable 3.5 mph - N/A   Clear
5:51 AM 36.0 °F 29.6 °F 19.9 °F 52% 29.96 in 10.0 mi SSE 8.1 mph - N/A   Clear
6:51 AM 36.0 °F - 21.0 °F 55% 29.97 in 10.0 mi Calm Calm - N/A   Clear
7:51 AM 35.1 °F 32.2 °F 21.0 °F 57% 29.97 in 10.0 mi Variable 3.5 mph - N/A   Clear
8:51 AM 39.0 °F - 21.9 °F 50% 29.98 in 10.0 mi Calm Calm - N/A   Clear
9:51 AM 44.1 °F - 21.9 °F 42% 30.01 in 10.0 mi Calm Calm - N/A   Clear
10:51 AM 48.0 °F - 21.9 °F 36% 30.00 in 10.0 mi WNW 4.6 mph - N/A   Clear
11:51 AM 50.0 °F - 25.0 °F 38% 29.99 in 10.0 mi SW 8.1 mph - N/A   Clear
12:51 PM 50.0 °F - 24.1 °F 36% 29.96 in 10.0 mi WSW 9.2 mph - N/A   Partly Cloudy
1:51 PM 52.0 °F - 24.1 °F 34% 29.92 in 10.0 mi SW 6.9 mph - N/A   Scattered Clouds
2:51 PM 53.1 °F - 23.0 °F 31% 29.91 in 10.0 mi SW 11.5 mph - N/A   Overcast
3:51 PM 52.0 °F - 23.0 °F 32% 29.91 in 10.0 mi West 6.9 mph - N/A   Overcast
4:51 PM 50.0 °F - 23.0 °F 35% 29.91 in 10.0 mi NNE 6.9 mph - N/A   Scattered Clouds
5:51 PM 48.9 °F - 21.9 °F 35% 29.91 in 10.0 mi NNE 3.5 mph - N/A   Clear
6:51 PM 37.9 °F 33.5 °F 19.0 °F 47% 29.95 in 10.0 mi SE 5.8 mph - N/A   Clear
7:51 PM 36.0 °F 31.1 °F 19.9 °F 52% 29.96 in 10.0 mi South 5.8 mph - N/A   Clear
8:51 PM 37.0 °F 29.8 °F 21.0 °F 52% 29.96 in 10.0 mi South 10.4 mph - N/A   Clear
9:51 PM 35.1 °F 27.4 °F 21.0 °F 57% 29.97 in 10.0 mi South 10.4 mph - N/A   Clear
10:51 PM 35.1 °F 27.9 °F 21.9 °F 59% 29.96 in 10.0 mi SSE 9.2 mph - N/A   Clear
11:51 PM 36.0 °F 32.1 °F 21.0 °F 55% 29.95 in 10.0 mi Variable 4.6 mph - N/A   Clear